Regional Weather Roundup
Issued by NWS

Home | Current Version | Previous Version | Text Only | Print | Product List | Glossary Off
Versions: 1 2 3 4 5 6 7 8 9 10 11 12 13 14 15 16 17 18 19 20 21 22 23 24 25 26 27 28 29 30 31 32 33 34 35 36 37 38 39 40 41 42 43 44 45 46 47 48 49 50

000
ASUS43 KOAX 310602
RWRNE

WEATHER ROUNDUP FOR NEBRASKA
NATIONAL WEATHER SERVICE OMAHA NE
100 AM CDT MON AUG 31 2015

NOTES: SATELLITE DATA IS BEING USED TO AUGMENT CLOUD COVER ABOVE
       12000 FEET.
       "FAIR" INDICATES FEW OR NO CLOUDS BELOW 12,000 FEET WITH NO
       SIGNIFICANT WEATHER AND/OR OBSTRUCTIONS TO VISIBILITY.

  * THESE STATIONS DO NOT REPORT WEATHER SUCH AS RAIN...SNOW OR FOG.

NEZ001>004-019>022-054>056-310700-
NEBRASKA PANHANDLE

CITY           SKY/WX    TMP DP  RH WIND       PRES   REMARKS
SCOTTSBLUFF    CLOUDY    80  47  31 SW8       29.92R
6HR MIN TEMP:  73; 6HR MAX TEMP:  91; 6HR PCP: TRACE;

ALLIANCE       MOCLDY    75  50  41 S12       29.89R
6HR MIN TEMP:  71; 6HR MAX TEMP:  96;

CHADRON        MOCLDY    69  50  50 W5        29.80F
6HR MIN TEMP:  69; 6HR MAX TEMP:  99;

KIMBALL        MOCLDY    73  44  34 W9        29.98R
SIDNEY         CLEAR     71  49  45 SW9       29.97S
6HR MIN TEMP:  67; 6HR MAX TEMP:  95;

$$

NEZ057>060-069>072-079>082-310700-
SOUTHWEST NEBRASKA

CITY           SKY/WX    TMP DP  RH WIND       PRES   REMARKS
NORTH PLATTE   CLEAR     68  57  68 SE12      29.93R
6HR MIN TEMP:  68; 6HR MAX TEMP:  88;

IMPERIAL       CLEAR     72  44  36 S17       29.93S
6HR MIN TEMP:  72; 6HR MAX TEMP:  91;

LEXINGTON      CLEAR     67  64  87 S12       29.95R
MC COOK        CLEAR     67  52  58 S9        29.94R
6HR MIN TEMP:  67; 6HR MAX TEMP:  90;

OGALLALA       CLEAR     72  41  32 S9G17     29.91R
$$

NEZ005>010-023>029-035>040-094-310700-
NORTH CENTRAL NEBRASKA

CITY           SKY/WX    TMP DP  RH WIND       PRES   REMARKS
VALENTINE      CLEAR     72  58  61 SW17      29.84R
6HR MIN TEMP:  71; 6HR MAX TEMP:  92;

AINSWORTH      CLEAR     69  59  71 S18G25    29.87S
BROKEN BOW     CLEAR     67  62  84 S10       29.94R
6HR MIN TEMP:  67; 6HR MAX TEMP:  83;

O`NEILL        CLEAR     67  65  93 S14       29.90R
ORD            CLEAR     66  63  90 S8        29.92R
6HR MIN TEMP:  66; 6HR MAX TEMP:  81;

THEDFORD       CLEAR     71  58  65 S18G24    29.90R
$$

NEZ041-046>049-061>064-073>077-083>087-310700-
SOUTH CENTRAL NEBRASKA

CITY           SKY/WX    TMP DP  RH WIND       PRES   REMARKS
GRAND ISLAND   FAIR      66  64  93 S14       29.96S
6HR MIN TEMP:  66; 6HR MAX TEMP:  76;

AURORA         FAIR      65  65  99 S8        29.96S
HASTINGS       FAIR      66  63  90 S9        29.97R
6HR MIN TEMP:  66; 6HR MAX TEMP:  77;

HEBRON         FAIR      65  63  91 SE5       29.96F
HOLDREGE       FAIR      65  62  92 S7        29.96S
KEARNEY *      FAIR      64  61  88 S9        29.96R
YORK           CLOUDY    64  63  94 S6        29.97S
$$

NEZ011>018-030>034-042>045-310700-
NORTHEAST NEBRASKA

CITY           SKY/WX    TMP DP  RH WIND       PRES   REMARKS
NORFOLK        FAIR      67  65  93 S15       29.93S
6HR MIN TEMP:  67; 6HR MAX TEMP:  74;

ALBION         FAIR      65  62  89 SE7       29.95R
BLAIR          FAIR      67  64  92 SE5       29.97S
COLUMBUS *     FAIR     N/A N/A N/A CALM      29.96S
FREMONT        FAIR      68  66  91 SE6       29.97S
TEKAMAH        FOG       61  60  97 SW5       29.96S VSB 1/4
6HR MIN TEMP:  61; 6HR MAX TEMP:  73;

$$

NEZ050>053-065>068-078-088>093-310700-
SOUTHEAST NEBRASKA

CITY           SKY/WX    TMP DP  RH WIND       PRES   REMARKS
LINCOLN        FAIR      66  65  96 S6        29.97S
6HR MIN TEMP:  65; 6HR MAX TEMP:  76;

OMAHA EPPLEY   FAIR      68  66  93 S8        29.97S
6HR MIN TEMP:  66; 6HR MAX TEMP:  75;

BEATRICE       FAIR      66  65  95 CALM      29.97F
FALLS CITY     FAIR      68  67  96 CALM      29.96F
6HR MIN TEMP:  68; 6HR MAX TEMP:  78;

NEBRASKA CITY  FAIR      68  67  98 CALM      29.97F
PLATTSMOUTH    FAIR      67  65  94 SE5       29.98S
$$

NEZ044-045-051>053-067-310700-
OMAHA AREA

CITY           SKY/WX    TMP DP  RH WIND       PRES   REMARKS
EPPLEY FIELD   FAIR      68  66  93 S8        29.97S
6HR MIN TEMP:  66; 6HR MAX TEMP:  75;

BLAIR          FAIR      67  64  92 SE5       29.97S
FREMONT        FAIR      68  66  91 SE6       29.97S
MILLARD        FAIR      67  66  95 SE3       29.97S
OFFUTT AFB     CLEAR     62  62 100 E2        29.96F
PLATTSMOUTH    FAIR      67  65  94 SE5       29.98S
WAHOO          FAIR      64  63  96 S5        29.97S FOG
$$



USA.gov is the U.S. government's official web portal to all federal, state and local government web resources and services.